Regional Weather Roundup
Issued by NWS

Home | Current Version | Previous Version | Graphics & Text | Print | Product List | Glossary On
Versions: 1 2 3 4 5 6 7 8 9 10 11 12 13 14 15 16 17 18 19 20 21 22 23 24 25 26 27 28 29 30 31 32 33 34 35 36 37 38 39 40 41 42 43 44 45 46 47 48 49 50
000
ASUS43 KTOP 192208
RWRKS

WEATHER ROUNDUP FOR KANSAS
NATIONAL WEATHER SERVICE GOODLAND KS
400 PM CST THU JAN 19 2017

NOTE:  "FAIR" INDICATES FEW OR NO CLOUDS BELOW 12,000 FEET WITH NO
SIGNIFICANT WEATHER AND/OR OBSTRUCTIONS TO VISIBILITY.

KSZ001>006-013>018-027>032-041>047-192300-
NORTHWEST KANSAS

CITY           SKY/WX    TMP DP  RH WIND       PRES   REMARKS
GOODLAND       SUNNY     40  36  86 SE9       29.53S
HAYS           CLOUDY    45  43  93 SE7       29.59R
HILL CITY      CLOUDY    47  42  83 SE6       29.59R
RUSSELL        LGT RAIN  46  44  93 SE7       29.57S FOG
$$

KSZ061>065-074>080-084>089-192300-
SOUTHWEST KANSAS

CITY           SKY/WX    TMP DP  RH WIND       PRES   REMARKS
DODGE CITY     CLOUDY    45  37  73 CALM      29.56R
ELKHART          N/A     53  25  33 N12         N/A
GARDEN CITY    CLOUDY    43  37  79 N7        29.56R
GREAT BEND     CLOUDY    46  44  93 SE5       29.58S
LIBERAL        CLOUDY    43  37  81 N7        29.56S
PRATT          CLOUDY    43  39  85 S5        29.58R
$$

KSZ066>073-081>083-090>101-192300-
SOUTHEAST KANSAS

CITY           SKY/WX    TMP DP  RH WIND       PRES   REMARKS
CHANUTE        CLOUDY    51  47  86 SE9       29.63F
COFFEYVILLE    CLOUDY    52  47  83 S12       29.63F
HUTCHINSON     CLOUDY    49  46  90 SE7       29.59R
MEDICINE LODGE   N/A     48  42  80 CALM      29.56S
NEWTON         CLOUDY    46  44  93 SE9       29.61R
PARSONS        CLOUDY    52  47  83 SE8       29.63F
WICHITA INTL   CLOUDY    51  45  79 E13       29.58S
WICHITA JABRA  CLOUDY    47  45  93 E12       29.59S
WICHITA MCCONL CLOUDY    49  45  85 SE12      29.58S
WINFIELD       CLOUDY    52  45  77 E14       29.58F
$$

KSZ007>012-019>026-033>040-048>060-102>105-192300-
NORTHEAST KANSAS

CITY           SKY/WX    TMP DP  RH WIND       PRES   REMARKS
CONCORDIA      CLOUDY    44  44 100 SE8       29.61S FOG
EMPORIA        CLOUDY    46  45  96 SE14      29.62S FOG
LAWRENCE       CLOUDY    48  46  93 E6        29.66F
MANHATTAN      CLOUDY    47  44  90 SE6       29.63F
MARYSVILLE     CLOUDY    45  43  93 S8        29.65R
OLATHE IND     CLOUDY    48  46  93 SE7       29.66F FOG
OLATHE EXE     FOG       46  46 100 SE5       29.66F VSB 1/2
SALINA         CLOUDY    48  45  89 SE9       29.61S
TOPEKA BILLARD CLOUDY    48  45  89 SE6       29.65F
TOPEKA FORBES  CLOUDY    48  45  89 SE7       29.65F FOG
$$




USA.gov is the U.S. government's official web portal to all federal, state and local government web resources and services.